User: anonymous   Login
Location: Chacón
(10.5789°N, 66.9317°W)
Time: 23:57:44
(UTC+00:00)
Language:

Cosmos 2333 - Orbit

View from above orbital plane
View from above orbital plane
View from above satellite
View from above satellite

Ground track
Ground track

The orbit data is extracted from the following two-line orbital elements,

1 24297U 96051A   24204.41274742  .00000066  00000-0  60521-4 0  9998
2 24297  70.9044 357.9560 0025927 275.0914  84.7248 14.13584319438106
Epoch (UTC): 22 July 2024 09:54:21
Eccentricity: 0.0025927
inclination: 70.9044°
perigee height: 828 km
apogee height: 866 km
right ascension of ascending node: 357.9560°
argument of perigee: 275.0914°
revolutions per day: 14.13584319
mean anomaly at epoch: 84.7248°
orbit number at epoch: 43810

The dashed part of the orbit path shows where the satellite is in the earth's shadow,  

DLR